Flag for Switzerland Weather past 2 weeks in Versoix, Geneva, Switzerland

Now
61 °F

Cool.


Feels Like: 61 °F
Forecast: 43 / 54 °F
Wind: 5 mph from Southeast

Location: Geneve-Cointrin

Current Time: Apr 27, 2015 at 12:56:43 PM

Latest Report: Apr 27, 2015 at 12:00 PM


Visibility: N/A

Pressure: 29.56 "Hg

Humidity: 71%

Dew point: 52 °F

Location of VersoixLocation

Historic Weather in Versoix — Graph

°F

Versoix temperature yesterday

Maximum temperature yesterday: 64 °F (at 6:00 PM)
Minimum temperature yesterday: 51 °F (at 6:00 AM)
Average temperature yesterday: 57 °F

Past Weeks' High & Low Weather Summary

 TemperatureHumidityPressure
High73 °F (Apr 24, 4:00 PM)95% (Apr 18, 4:00 AM)30.48 "Hg (Apr 18, 4:00 AM)
Low41 °F (Apr 21, 7:00 AM)20% (Apr 24, 4:00 PM)29.55 "Hg (Apr 27, 11:00 AM)
Average56 °F62%30.09 "Hg
* Reported Apr 12 11:00 AM — Apr 27 11:00 AM, Versoix, Weather by CustomWeather, © 2015

Note: Actual official high and low records may vary slightly from our data, if they occured in-between our weather recording intervals... More about our weather records

Advertising

Versoix weather history for previous 24 hours

 ConditionsComfort  
Time TempWeatherWind HumidityBarometerVisibility
11:00 AM
Mon, Apr 27
62 °FPartly sunny.5 mph75%29.55 "Hg16 mi
10:00 AM57 °FCool.5 mph87%29.57 "HgN/A
9:00 AM56 °FCool.5 mph91%29.57 "HgN/A
8:00 AM54 °FLow clouds.3 mph93%29.58 "Hg6 mi
7:00 AM54 °FCool.7 mph94%29.58 "HgN/A
6:00 AM55 °FCool.1 mph94%29.60 "HgN/A
5:00 AM55 °FSprinkles. Overcast.1 mph94%29.62 "Hg5 mi
4:00 AM55 °FCool.3 mph90%29.63 "HgN/A
3:00 AM54 °FCool.3 mph94%29.64 "HgN/A
2:00 AM55 °FOvercast.1 mph91%29.66 "Hg12 mi
1:00 AM55 °FCool.1 mph91%29.67 "HgN/A
12:00 AM55 °FCool.2 mph89%29.67 "HgN/A
11:00 PM
Sun, Apr 26
56 °FOvercast.1 mph86%29.68 "Hg16 mi
10:00 PM57 °FCool.2 mph80%29.68 "HgN/A
9:00 PM56 °FCool.1 mph83%29.68 "HgN/A
8:00 PM60 °FOvercast.3 mph73%29.67 "Hg19 mi
7:00 PM61 °FCool.6 mph65%29.66 "HgN/A
6:00 PM64 °FMild.2 mph63%29.66 "HgN/A
5:00 PM63 °FPartly sunny.1 mph61%29.69 "Hg22 mi
4:00 PM61 °FCool.2 mph68%29.73 "HgN/A
3:00 PM60 °FCool.5 mph66%29.76 "HgN/A
2:00 PM60 °FPartly sunny.3 mph66%29.77 "Hg19 mi
1:00 PM61 °FCool.5 mph70%29.80 "HgN/A
12:00 PM58 °FCool.5 mph73%29.83 "HgN/A
Weather by CustomWeather, © 2015

See weather overviewHow to use our weather pages